DW8785 Weather Reports


time (UTC)temp
C
wind
direction
speed
KPH
gust
KPH
rain 1hr
cm
rain 24hr
cm
rain mn
cm
humidity
%
barometer
mb
20260905234501 25 357 0.0 0.0 0.00 0.00 0.00 41 1013.9
20260905233058 25 359 0.0 0.0 0.00 0.00 0.00 39 1014.0
20260905231554 25 359 0.0 0.0 0.00 0.00 0.00 40 1014.2
20260905230053 25 359 1.6 0.0 0.00 0.00 0.00 40 1014.1
20260905224600 25 359 3.2 0.0 0.00 0.00 0.00 40 1014.1
20260905223042 25 357 4.8 0.0 0.00 0.00 0.00 42 1014.2
20260905221547 23 357 3.2 0.0 0.00 0.00 0.00 49 1014.1
20260905220038 24 359 8.0 0.0 0.00 0.00 0.00 48 1013.9
20260905214527 24 359 11.3 0.0 0.00 0.00 0.00 44 1013.9
20260905213024 24 359 12.9 0.0 0.00 0.00 0.00 47 1014.0
20260905211520 24 350 14.5 0.0 0.00 0.00 0.00 50 1013.8
20260905210015 23 359 12.9 0.0 0.00 0.00 0.00 51 1013.9
20260905204517 23 189 12.9 0.0 0.00 0.00 0.00 53 1013.8
20260905203008 24 359 12.9 0.0 0.00 0.00 0.00 52 1013.8
20260905201507 23 359 14.5 0.0 0.00 0.00 0.00 55 1014.1
20260905194555 23 359 11.3 0.0 0.00 0.00 0.00 60 1013.9
20260905193052 23 357 12.9 0.0 0.00 0.00 0.00 58 1013.7
20260905191549 23 359 12.9 0.0 0.00 0.00 0.00 60 1013.6
20260905190038 23 359 12.9 0.0 0.00 0.00 0.00 61 1013.4
20260905184535 23 359 12.9 0.0 0.00 0.00 0.00 59 1013.3
20260905183033 24 357 16.1 0.0 0.00 0.00 0.00 58 1013.0
20260905181527 24 359 12.9 0.0 0.00 0.00 0.00 57 1013.2
20260905180019 24 359 14.5 0.0 0.00 0.00 0.00 56 1013.1
20260905174519 24 354 16.1 0.0 0.00 0.00 0.00 55 1012.7
20260905173017 25 357 17.7 0.0 0.00 0.00 0.00 56 1012.5
20260905171509 25 274 16.1 0.0 0.00 0.00 0.00 54 1012.4
20260905170003 26 359 14.5 0.0 0.00 0.00 0.00 53 1012.5
20260905164558 26 359 14.5 0.0 0.00 0.00 0.00 52 1012.6
20260905163054 26 359 17.7 0.0 0.00 0.00 0.00 49 1012.3
20260905161549 27 278 19.3 0.0 0.00 0.00 0.00 47 1012.1
20260905160111 27 356 17.7 0.0 0.00 0.00 0.00 45 1012.1
20260905154542 27 359 16.1 0.0 0.00 0.00 0.00 44 1012.2
20260905153036 27 357 24.1 0.0 0.00 0.00 0.00 44 1011.9
20260905151535 27 191 20.9 0.0 0.00 0.00 0.00 44 1012.0
20260905150026 27 192 22.5 0.0 0.00 0.00 0.00 44 1012.1
20260905144522 28 357 16.1 0.0 0.00 0.00 0.00 41 1012.1
20260905143018 28 356 17.7 0.0 0.00 0.00 0.00 41 1012.2
20260905141514 28 357 16.1 0.0 0.00 0.00 0.00 39 1012.0
20260905140009 28 359 22.5 0.0 0.00 0.00 0.00 39 1012.4
20260905134505 27 188 24.1 0.0 0.00 0.00 0.00 39 1012.4
20260905133100 27 359 27.4 0.0 0.00 0.00 0.00 40 1012.6
20260905131602 28 357 19.3 0.0 0.00 0.00 0.00 40 1012.6
20260905130051 27 188 20.9 0.0 0.00 0.00 0.00 39 1012.6
20260905124552 28 281 17.7 0.0 0.00 0.00 0.00 38 1012.7
20260905123043 28 356 19.3 0.0 0.00 0.00 0.00 38 1012.7
20260905121538 27 274 19.3 0.0 0.00 0.00 0.00 39 1012.8
20260905120033 27 357 22.5 0.0 0.00 0.00 0.00 38 1013.0
20260905114529 27 359 25.7 0.0 0.00 0.00 0.00 39 1013.1
20260905113024 27 188 24.1 0.0 0.00 0.00 0.00 39 1013.1
20260905111520 27 359 17.7 0.0 0.00 0.00 0.00 38 1013.1
20260905110014 27 298 16.1 0.0 0.00 0.00 0.00 38 1013.1
20260905104510 26 352 19.3 0.0 0.00 0.00 0.00 37 1013.0
20260905103016 26 294 22.5 0.0 0.00 0.00 0.00 36 1013.2
20260905101502 26 289 27.4 0.0 0.00 0.00 0.00 39 1013.3
20260905100056 25 359 30.6 0.0 0.00 0.00 0.00 37 1013.2
20260905094552 25 357 24.1 0.0 0.00 0.00 0.00 41 1013.3
20260905093048 25 282 27.4 0.0 0.00 0.00 0.00 40 1013.1
20260905091613 25 346 29.0 0.0 0.00 0.00 0.00 41 1012.9
20260905090040 25 357 29.0 0.0 0.00 0.00 0.00 43 1012.6
20260905084534 25 282 30.6 0.0 0.00 0.00 0.00 41 1012.5
20260905083030 25 284 29.0 0.0 0.00 0.00 0.00 40 1012.2
20260905081526 25 305 29.0 0.0 0.00 0.00 0.00 40 1012.3
20260905080020 25 193 25.7 0.0 0.00 0.00 0.00 38 1012.3
20260905074518 24 278 22.5 0.0 0.00 0.00 0.00 37 1012.4
20260905073012 24 359 20.9 0.0 0.00 0.00 0.00 37 1012.0
20260905071507 23 359 29.0 0.0 0.00 0.00 0.00 37 1011.6
20260905070004 23 305 29.0 0.0 0.00 0.00 0.00 35 1011.7
20260905064600 23 359 29.0 0.0 0.00 0.00 0.00 35 1011.9
20260905063058 23 359 29.0 0.0 0.00 0.00 0.00 36 1011.9
20260905061618 23 0 27.4 0.0 0.00 0.00 0.00 37 1011.8
20260905060046 22 284 30.6 0.0 0.00 0.00 0.00 37 1011.9
20260905054542 22 359 30.6 0.0 0.00 0.00 0.00 41 1011.7
20260905053038 22 359 30.6 0.0 0.00 0.00 0.00 43 1011.8
20260905051538 22 346 30.6 0.0 0.00 0.00 0.00 42 1011.4
20260905050034 22 0 32.2 0.0 0.00 0.00 0.00 41 1011.1
20260905044532 22 285 32.2 0.0 0.00 0.00 0.00 40 1011.2
20260905043025 22 280 32.2 0.0 0.00 0.00 0.00 39 1011.2
20260905041516 22 359 30.6 0.0 0.00 0.00 0.00 40 1010.9
20260905040011 23 277 33.8 0.0 0.00 0.00 0.00 41 1010.9
20260905034506 22 359 32.2 0.0 0.00 0.00 0.00 44 1011.0
20260905033002 22 285 30.6 0.0 0.00 0.00 0.00 46 1011.0
20260905031559 22 359 27.4 0.0 0.00 0.00 0.00 46 1011.2
20260905030054 22 282 22.5 0.0 0.00 0.00 0.00 47 1011.2
20260905024548 22 282 27.4 0.0 0.00 0.00 0.00 48 1011.2
20260905023044 22 357 29.0 0.0 0.00 0.00 0.00 48 1011.0
20260905021541 22 291 35.4 0.0 0.00 0.00 0.00 47 1010.7
20260905020038 22 359 38.6 0.0 0.00 0.00 0.00 46 1010.6
20260905014535 22 359 40.2 0.0 0.00 0.00 0.00 46 1010.8
20260905013030 22 357 33.8 0.0 0.00 0.00 0.00 41 1011.0
20260905011520 23 280 32.2 0.0 0.00 0.00 0.00 39 1010.9
20260905010019 23 359 29.0 0.0 0.00 0.00 0.00 38 1011.1
20260905004516 23 359 25.7 0.0 0.00 0.00 0.00 35 1011.3
20260905003009 23 359 25.7 0.0 0.00 0.00 0.00 35 1011.6
20260905001506 23 280 24.1 0.0 0.00 0.00 0.00 37 1011.7
20260905000112 23 359 27.4 0.0 0.00 0.00 0.00 36 1011.8